This is the latest recevied weather packets stored in our database for station/object JG6YPS-13. If no packets are shown the sender has not sent any weather packets the latest 10 day(s).
| Time | Temp. | Humidity | Pressure | Rain* | Wind** | Luminosity | Snow |
|---|---|---|---|---|---|---|---|
| 1777449789 | 20.56° C | 63% | 1014.6 hPa | 0 mm | - | - | - |
| 1777449189 | 21.11° C | 62% | 1014.5 hPa | 0 mm | - | - | - |
| 1777448590 | 21.11° C | 61% | 1014.3 hPa | 0 mm | - | - | - |
| 1777447990 | 21.67° C | 60% | 1014.2 hPa | 0 mm | - | - | - |
| 1777447390 | 22.22° C | 59% | 1014 hPa | 0 mm | - | - | - |
| 1777446790 | 22.78° C | 58% | 1014 hPa | 0 mm | - | - | - |
| 1777446190 | 22.78° C | 58% | 1014 hPa | 0 mm | - | - | - |
| 1777445591 | 23.33° C | 59% | 1013.8 hPa | 0 mm | - | - | - |
| 1777444991 | 23.89° C | 56% | 1013.7 hPa | 0 mm | - | - | - |
| 1777444391 | 24.44° C | 54% | 1013.6 hPa | 0 mm | - | - | - |
| 1777443791 | 25.56° C | 53% | 1013.5 hPa | 0 mm | - | - | - |
| 1777443190 | 26.11° C | 51% | 1013.3 hPa | 0 mm | - | - | - |
| 1777442590 | 26.11° C | 49% | 1013.5 hPa | 0 mm | - | - | - |
| 1777441990 | 26.67° C | 45% | 1013.6 hPa | 0 mm | - | - | - |
| 1777441390 | 27.22° C | 45% | 1013.6 hPa | 0 mm | - | - | - |
| 1777440790 | 27.22° C | 39% | 1013.6 hPa | 0 mm | - | - | - |
| 1777440189 | 29.44° C | 37% | 1013.7 hPa | 0 mm | - | - | - |
| 1777439589 | 29.44° C | 33% | 1013.8 hPa | 0 mm | - | - | - |
| 1777438989 | 30.56° C | 28% | 1013.6 hPa | 0 mm | - | - | - |
| 1777438388 | 31.11° C | 32% | 1013.9 hPa | 0 mm | - | - | - |
| 1777437787 | 32.22° C | 32% | 1013.9 hPa | 0 mm | - | - | - |
| 1777437186 | 30.56° C | 32% | 1014 hPa | 0 mm | - | - | - |
| 1777436586 | 30.56° C | 36% | 1014 hPa | 0 mm | - | - | - |
| 1777435985 | 31.11° C | 26% | 1014 hPa | 0 mm | - | - | - |
| 1777435385 | 31.67° C | 33% | 1014.1 hPa | 0 mm | - | - | - |
* Rain latest hour (hover to see other rain measurements)
** Current wind speed in m/s (hover to see current wind gust speed)